Regional Weather Roundup
Issued by NWS

Home | Current Version | Previous Version | Graphics & Text | Print | Product List | Glossary On
Versions: 1 2 3 4 5 6 7 8 9 10 11 12 13 14 15 16 17 18 19 20 21 22 23 24 25 26 27 28 29 30 31 32 33 34 35 36 37 38 39 40 41 42 43 44 45 46 47 48 49 50
000
ASUS43 KMPX 010201
RWRMN
WEATHER ROUNDUP FOR MINNESOTA
NATIONAL WEATHER SERVICE TWIN CITIES/CHANHASSEN MN
900 PM CDT SUN APR 30 2017


NOTE: "FAIR" INDICATES FEW OR NO CLOUDS BELOW 12,000 FEET WITH NO
SIGNIFICANT WEATHER AND/OR OBSTRUCTIONS TO VISIBILITY. N/A MEANS
CURRENT SKY AND/OR WEATHER CONDITIONS ARE NOT AVAILABLE.

MNZ060>063-068>070-010300-
   Twin Cities Metro

CITY           SKY/WX    TMP DP  RH WIND       PRES   REMARKS
TWIN CITIES    LGT RAIN  44  34  67 NE17      29.70F
ST PAUL        LGT RAIN  44  36  73 NE15      29.73R
CRYSTAL        CLOUDY    43  31  62 NE13G21   29.71S
BLAINE         LGT RAIN  45  36  70 NE12G25   29.72S
LAKEVILLE      CLOUDY    41  36  81 NE20G25   29.67F
EDEN PRAIRIE   LGT RAIN  45  34  65 NE20G29   29.67F
SOUTH ST PAUL  CLOUDY    44  36  73 NE12G20   29.71S
LAKE ELMO      LGT RAIN  43  34  70 NE10G16   29.73R
$$
MNZ001>005-007-008-013>017-022>024-027-028-010300-
   Northwest Minnesota

CITY           SKY/WX    TMP DP  RH WIND       PRES   REMARKS
BEMIDJI        MOCLDY    47  23  38 E7        29.88S
HALLOCK        PTCLDY    54  23  30 E8        29.90S
ROSEAU         PTCLDY    45  34  65 NE5       29.93S
WARROAD        PTCLDY    48  28  46 NE8       29.93F
THIEF RVR FALL CLEAR     53  25  33 E5        29.90S
CROOKSTON      CLEAR     54  27  35 E3        29.89S
FOSSTON        CLEAR     48  18  29 NE7       29.88S
DETROIT LAKES  CLOUDY    50  23  34 E6        29.86F
MOORHEAD       MOCLDY    48  21  34 E5        29.86F
PARK RAPIDS    CLOUDY    50  22  33 E10       29.85F
MAHNOMEN       FAIR      44  29  53 E7        29.86F
$$
MNZ006-009>011-018-025>026-010300-
   North Central Minnesota

CITY           SKY/WX    TMP DP  RH WIND       PRES   REMARKS
BAUDETTE       CLEAR     47  22  37 E7        29.92S
FLAG ISLAND    PTCLDY    50  25  37 CALM      29.93F
INTL FALLS     CLOUDY    47  23  38 E7        29.94S
WASKISH        PTCLDY    50  27  40 E7        29.91S
BIG FORK       PTCLDY    48  19  32 E5        29.91F
LONGVILLE      CLOUDY    46  19  34 NE7       29.87F
GRAND RAPIDS   CLOUDY    44  20  38 E9        29.91F
CRANE LAKE     CLOUDY    43  14  31 CALM      29.98S
ORR            PTCLDY    46  14  27 E5        29.92F
COOK           CLOUDY    45  25  45 CALM      29.94F
WALKER         FAIR      46  25  43 E8        29.88S
$$
MNZ012-019>021-037-010300-
   Northeast Minnesota

CITY           SKY/WX    TMP DP  RH WIND       PRES   REMARKS
DULUTH         CLOUDY    40  19  43 E18G32    29.88F
ELY            CLOUDY    43  18  36 E3        29.95S
HIBBING        CLOUDY    42  16  34 E12       29.91F
EVELETH        CLOUDY    42   1  17 E9        29.93F
DULUTH HARBOR  CLOUDY    39  34  81 NE22      29.90F
TWO HARBORS    CLOUDY    45  21  39 NE14G23   29.89F
SILVER BAY     CLOUDY    43  18  36 NE14G20   29.91F
GRAND MARAIS     N/A     46  18  32 NE12      29.96F
G MARAIS ARPRT CLOUDY    39  10  30 NE9       29.95F
$$
MNZ029>031-032-039>041-046>048-054>057-064-010300-
   West Central Minnesota

CITY           SKY/WX    TMP DP  RH WIND       PRES   REMARKS
FERGUS FALLS   CLOUDY    48  27  43 NE7       29.82F
WHEATON        MOCLDY    50  25  37 NE8       29.83F
MORRIS         CLOUDY    46  30  53 NE13G20   29.79F
ALEXANDRIA     CLOUDY    44  26  49 NE15      29.79F
ELBOW LAKE     FAIR      48  28  45 NE13      29.80F
WADENA         CLOUDY    46  25  42 NE12      29.82F
GLENWOOD       RAIN      39  30  70 NE20      29.77F
BENSON         DRIZZLE   43  34  70 E8        29.79F
ORTONVILLE     CLOUDY    45  34  65 NE9       29.79F
MADISON        LGT RAIN  43  39  87 NE17      29.78F
WILLMAR        DRIZZLE   39  39 100 NE18G28   29.74F
$$
MNZ033>034-036-042>043-049>051-058-059-010300-
   Central Minnesota

CITY           SKY/WX    TMP DP  RH WIND       PRES   REMARKS
ST CLOUD       LGT RAIN  39  35  86 NE12G23   29.75F
SAUK CENTRE    DRIZZLE   41  28  60 NE22G28   29.77F
PAYNESVILLE    LGT RAIN  38  35  89 NE15      29.74F
AITKIN         CLOUDY    45  12  26 NE14G23   29.84F
PINE RIVER     CLOUDY    45  25  45 NE8       29.89F
BRAINERD       CLOUDY    43  19  38 NE15G29   29.84F
STAPLES        CLOUDY    45  23  42 NE9       29.83F
LONG PRAIRIE   CLOUDY    41  23  48 N14G29    29.79F
LITTLE FALLS   LGT RAIN  41  25  52 NE7G18    29.80F
LITCHFIELD     LGT RAIN  41  37  87 NE17G24   29.71F
BUFFALO        DRIZZLE   40  34  78 N12G20    29.73F
MAPLE LAKE     LGT RAIN  40  37  87 NE15G24   29.74F
HUTCHINSON     LGT RAIN  41  38  89 N17G26    29.69F
$$
MNZ037-044-045-052-053-010300-
   East Central Minnesota

CITY           SKY/WX    TMP DP  RH WIND       PRES   REMARKS
PRINCETON      LGT RAIN  41  34  75 N16       29.76F
MORA           DRIZZLE   36  32  87 NE6       29.82F
CAMBRIDGE      LGT RAIN  43  30  61 NE10G24   29.73F
RUSH CITY      CLOUDY    42  27  55 NE14G23   29.76F
MOOSE LAKE     CLOUDY    37  23  56 NE12G18   29.83F
HINCKLEY       DRIZZLE   37  32  81 NE14G20   29.80F
CLOQUET        CLOUDY    39  12  33 NE17G25   29.86F
MCGREGOR       CLOUDY    41  19  42 NE13G23   29.87F
$$
MNZ071>073-080-081-089-090-097-098-010300-
   Southwest Minnesota

CITY           SKY/WX    TMP DP  RH WIND       PRES   REMARKS
MONTEVIDEO     LGT RAIN  39  39 100 E16       29.75F
GRANITE FALLS  RAIN      41  38  90 N15G24    29.73F
CANBY          LGT RAIN  41  38  91 NE14      29.77F
MARSHALL       LGT RAIN  39  37  92 N18G25    29.71S
REDWOOD FALLS  LGT RAIN  40  36  86 NE15G24   29.67F FOG
OLIVIA         LGT RAIN  39  36  87 NE20G30   29.68F
PIPESTONE      LGT SNOW  36  32  87 NE9       29.74R
WINDOM         HVY RAIN  39  37  93 CALM      29.71R
WORTHINGTON    LGT SNOW  35  35 100 N9        29.70F FOG     WCI  28
JACKSON        LGT SNOW  36  36 100 N5        29.69R
TRACY          LGT SNOW  39  38  97 NE14G26   29.72R
SLAYTON        HVY RAIN  37  37  97 NE10G24   29.73R
$$
MNZ065>067-074>077-082>085-091>093-010300-
   South Central Minnesota

CITY           SKY/WX    TMP DP  RH WIND       PRES   REMARKS
MANKATO        LGT RAIN  43  37  79 NE22G30   29.62F
NEW ULM        LGT RAIN  43  36  75 NE17G24   29.65R
ST JAMES       RAIN      41  37  87 N16       29.64R
FAIRMONT       LGT RAIN  41  40  96 CALM      29.67R FOG
FARIBAULT      CLOUDY    43  37  81 NE14G21   29.64F
OWATONNA       LGT RAIN  45  37  76 NE23G31   29.61F
WASECA         RAIN      43  37  81 NE24G30   29.59F
ALBERT LEA     HVY RAIN  39  39 100 E18G26    29.56F
$$
MNZ078>079-086>088-094>096-010300-
   Southeast Minnesota

CITY           SKY/WX    TMP DP  RH WIND       PRES   REMARKS
ROCHESTER      LGT RAIN  40  38  93 NE26G37   29.59F
RED WING       DRIZZLE   46  36  66 E10       29.68S
STANTON        CLOUDY    44  37  77 NE12      29.65F
DODGE CENTER   RAIN      43  39  87 NE25      29.60F
WINONA         CLOUDY    41  36  81 E14G28    29.68F
AUSTIN         RAIN      41  37  87 E18G33    29.58F
PRESTON        RAIN      38  36  91 NE17G25   29.59F
$$
ABBREVIATIONS USED IN REMARKS
   TC - TEMPERATURES IN CELSIUS
  WCI - WIND CHILL INDEX
   HX - HEAT INDEX
  VSB - VISIBILITY
$$



USA.gov is the U.S. government's official web portal to all federal, state and local government web resources and services.